Location: Leipzig
(51.3397°N, 12.3731°E)
Time: 20:20:35
(UTC+01:00)

ISS - Pass Details

Date: 19 October 2025
Orbit: 414 x 421 km, 51.6° (Epoch: 07 November)

Event Time Altitude Azimuth Distance (km) Brightness Sun altitude
Exits shadow 06:19:55 11° 215° (SW) 1,429 -1.4 -13.4°
Maximum altitude 06:22:48 33° 151° (SSE) 726 -2.3 -12.9°
Drops below altitude 10° 06:25:53 10° 85° (E) 1,508 0.6 -12.5°
Sets 06:28:06 0° 76° (ENE) 2,377 1.7 -12.1°
